[[{"header":{"parameterUnit":"m.s-1","parameterCategory":1,"la1":30.2991,"la2":30.254,"lo1":-89.0895,"lo2":-89.0444,"dy":0.0017,"dx":0.0017,"nx":28,"ny":28,"refTime":"2024-10-01T09:00:00:Z","depth":0,"parameterNumber":2,"parameterNumberName":"U-component_of_WINDS"},"data":[0,0,0,0,0,0,0,0,0,0,0,0,0,0,0,0,0,0,0,0,0,0,0,0,0,0,0,0,0,0,0,0,0,0,0,0,0,0,0,0,0,0,0,0,0,0,0,0,0,0,0,0,0,0,0,0,0,0,-2.1987,-2.1987,0,-2.1978,-2.1978,-2.1978,-2.1955,-2.1955,-2.1954,-2.1954,-2.1944,-2.1944,-2.1945,0,0,0,0,0,0,0,0,0,0,0,0,0,-2.1985,-2.1985,-2.1987,-2.1987,-2.1987,-2.1978,-2.1978,-2.1978,-2.1955,-2.1955,-2.1954,-2.1954,-2.1944,-2.1944,-2.1945,0,0,0,0,0,0,0,0,0,0,0,0,0,-2.1982,-2.1985,-2.1987,-2.1975,-2.1974,-2.1978,-2.1978,-2.1978,-2.1956,-2.1955,-2.1954,-2.1954,-2.1944,-2.1944,-2.1945,-2.196,0,0,-2.1945,-2.1946,0,0,0,0,0,0,0,0,-2.1982,-2.1982,-2.1977,-2.1976,-2.1974,-2.1967,-2.1974,-2.1972,-2.1956,-2.1962,-2.1954,-2.1953,-2.1952,-2.1952,-2.1952,-2.196,-2.196,-2.1946,-2.1946,-2.1946,-2.1946,0,0,0,0,0,0,0,-2.1982,-2.1982,-2.1984,-2.1977,-2.1975,-2.197,-2.1968,-2.1973,-2.1961,-2.1962,-2.196,-2.1959,-2.1952,-2.1952,-2.1951,-2.1959,-2.1945,-2.1946,-2.1946,-2.1946,-2.1981,-2.1982,0,0,0,0,0,0,-2.1985,-2.1983,-2.1984,-2.1983,-2.1977,-2.197,-2.1969,-2.197,-2.1961,-2.1959,-2.196,-2.1958,-2.1951,-2.1951,-2.1951,-2.197,-2.1946,-2.1946,-2.1946,-2.1981,-2.1981,-2.1982,0,0,0,0,0,0,-2.1985,-2.1985,-2.1984,-2.1983,-2.1982,-2.1971,-2.1973,-2.197,-2.197,-2.196,-2.1958,-2.1962,-2.1951,-2.1951,-2.1959,-2.1969,-2.1946,-2.1946,-2.198,-2.1981,-2.1982,-2.2008,0,0,0,0,0,0,-2.1985,-2.1985,-2.1991,-2.1983,-2.1982,-2.1992,-2.1973,-2.1971,-2.1971,-2.1969,-2.1961,-2.196,-2.195,-2.1958,-2.1959,-2.1969,-2.1947,-2.1979,-2.198,-2.1982,-2.2006,-2.201,-2.2013,0,0,0,0,0,-2.1985,-2.1998,-2.1991,-2.1992,-2.1989,-2.1993,-2.1992,-2.1982,-2.1972,-2.1978,-2.1971,-2.196,-2.1968,-2.1959,-2.196,-2.197,-2.1978,-2.198,-2.1981,-2.2004,-2.2009,-2.2013,0,0,0,0,0,0,-2.2007,-2.1997,-2.1989,-2.2,-2.1998,-2.1989,-2.1996,-2.1987,-2.1986,-2.1984,-2.1971,-2.1969,-2.1979,-2.1975,-2.1966,-2.1986,-2.1971,-2.1973,-2.1988,-2.1993,-2.1996,-2.1997,-2.1947,0,0,0,0,0,-2.2014,-2.2017,-2.2008,-2.2019,-2.2018,-2.2007,-2.2008,-2.2,-2.1997,-2.1996,-2.1989,-2.1987,-2.1988,-2.199,-2.1991,-2.2005,-2.2003,-2.2012,-2.2016,-2.2019,-2.2021,-2.2029,-2.2033,-2.1988,-2.1988,-2.1988,0,0,-2.2027,-2.2022,-2.2025,-2.2023,-2.202,-2.2025,-2.2006,-2.2012,-2.2015,-2.1996,-2.2004,-2.1999,-2.1995,-2.2006,-2.2011,-2.2003,-2.2033,-2.2021,-2.2023,-2.2024,-2.2031,-2.2036,-2.2039,-2.1989,-2.1989,-2.1989,0,0,-2.2054,-2.2049,-2.2059,-2.2056,-2.2052,-2.2045,-2.2047,-2.204,-2.2036,-2.2044,-2.203,-2.2034,-2.2037,-2.2035,-2.2034,-2.2061,-2.2051,-2.2061,-2.208,-2.2088,-2.2091,-2.2095,-2.2105,-2.2109,-2.2063,-2.2063,-2.2063,0,-2.2071,-2.2077,-2.2065,-2.2071,-2.2071,-2.2055,-2.2064,-2.2062,-2.2058,-2.2059,-2.205,-2.2055,-2.2051,-2.2062,-2.2069,-2.2068,-2.2071,-2.2063,-2.2092,-2.2095,-2.2098,-2.2108,-2.2112,-2.2065,-2.2064,-2.2064,-2.2064,0,-2.2098,-2.2103,-2.2111,-2.2109,-2.2109,-2.2117,-2.2107,-2.2109,-2.2101,-2.2095,-2.2103,-2.2097,-2.2098,-2.2099,-2.2091,-2.211,-2.2105,-2.2094,-2.208,-2.2104,-2.2113,-2.2117,-2.2067,-2.2066,-2.2066,-2.2065,0,0,-2.214,-2.2131,-2.2134,-2.2133,-2.2127,-2.2131,-2.2138,-2.2139,-2.2141,-2.2139,-2.2146,-2.2149,-2.2139,-2.2139,-2.213,-2.2137,-2.216,-2.2125,-2.2125,-2.2133,-2.2181,-2.2191,-2.2195,-2.2152,-2.2153,-2.2154,-2.2182,0,-2.2166,-2.2179,-2.2168,-2.2183,-2.2187,-2.2172,-2.2178,-2.2175,-2.217,-2.2173,-2.2167,-2.217,-2.2156,-2.2156,-2.2162,-2.2156,-2.2169,-2.2153,-2.2159,-2.216,-2.2162,-2.22,-2.221,-2.2237,-2.2186,-2.2186,-2.2187,0,-2.2199,-2.2199,-2.2214,-2.2208,-2.221,-2.2216,-2.2216,-2.2219,-2.2216,-2.2211,-2.2211,-2.22,-2.2207,-2.2192,-2.2202,-2.2191,-2.2193,-2.219,-2.2191,-2.2192,-2.2176,-2.2204,-2.2245,-2.225,-2.2192,-2.2192,-2.2191,0,-2.2229,-2.2233,-2.2243,-2.2242,-2.2235,-2.224,-2.2238,-2.2233,-2.2235,-2.2235,-2.2236,-2.2236,-2.2237,-2.2237,-2.2228,-2.2217,-2.2239,-2.2223,-2.2237,-2.2237,-2.2243,-2.2243,-2.2287,-2.2242,-2.2242,-2.2242,-2.2242,0,-2.2261,-2.2271,-2.2257,-2.2263,-2.2274,-2.2262,-2.2273,-2.2269,-2.2266,-2.2271,-2.2257,-2.2262,-2.2248,-2.2252,-2.2244,-2.2254,-2.2254,-2.2251,-2.225,-2.2254,-2.2254,-2.2256,-2.2254,-2.2243,-2.2243,-2.2242,-2.2242,0,-2.2297,-2.2288,-2.2298,-2.2291,-2.2289,-2.2298,-2.2292,-2.2297,-2.2291,-2.2298,-2.2299,-2.2289,-2.2293,-2.2283,-2.2285,-2.2279,-2.2295,-2.2289,-2.2296,-2.2295,-2.231,-2.231,-2.2358,-2.2364,-2.2313,-2.2314,-2.2314,0,-2.2319,-2.2326,-2.232,-2.2323,-2.2321,-2.2326,-2.2327,-2.2315,-2.2317,-2.2314,-2.2321,-2.2323,-2.2325,-2.2332,-2.2325,-2.2327,-2.2322,-2.2339,-2.2322,-2.2327,-2.2324,-2.2325,-2.2326,-2.2343,-2.2343,-2.2344,-2.2344,0,-2.2358,-2.2353,-2.2356,-2.2358,-2.236,-2.2361,-2.236,-2.2363,-2.235,-2.2353,-2.2357,-2.2359,-2.2361,-2.2365,-2.2365,-2.2362,-2.2352,-2.2349,-2.2353,-2.2358,-2.2363,-2.2362,-2.2307,-2.2349,-2.2348,-2.2348,-2.2348,-2.2347,-2.2389,-2.2396,-2.2393,-2.2397,-2.2395,-2.2395,-2.24,-2.2395,-2.2398,-2.24,-2.2392,-2.2398,-2.2395,-2.2394,-2.2393,-2.2397,-2.239,-2.2395,-2.2396,-2.2398,-2.2401,-2.2361,-2.2397,-2.2397,-2.2397,-2.2397,-2.2397,0,-2.2429,-2.2427,-2.243,-2.243,-2.2434,-2.2423,-2.2422,-2.2425,-2.2431,-2.2429,-2.2431,-2.2436,-2.244,-2.2433,-2.2435,-2.244,-2.2436,-2.2442,-2.2442,-2.2442,-2.2407,-2.2405,-2.2445,-2.2445,-2.2445,-2.2445,-2.2445,-2.2445,-2.2451,-2.2462,-2.2457,-2.2467,-2.2464,-2.2471,-2.2471,-2.2471,-2.247,-2.2477,-2.2479,-2.2475,-2.2471,-2.2473,-2.2476,-2.2474,-2.2476,-2.2484,-2.2481,-2.2449,-2.2444,-2.2439,-2.2437,-2.2484,-2.2484,-2.2515,-2.2515,-2.2515]},{"header":{"parameterUnit":"m.s-1","parameterCategory":1,"la1":30.2991,"la2":30.254,"lo1":-89.0895,"lo2":-89.0444,"dy":0.0017,"dx":0.0017,"nx":28,"ny":28,"refTime":"2024-10-01T09:00:00:Z","depth":0,"parameterNumber":3,"parameterNumberName":"V-component_of_WINDS"},"data":[0,0,0,0,0,0,0,0,0,0,0,0,0,0,0,0,0,0,0,0,0,0,0,0,0,0,0,0,0,0,0,0,0,0,0,0,0,0,0,0,0,0,0,0,0,0,0,0,0,0,0,0,0,0,0,0,0,0,-3.1174,-3.1174,0,-3.1151,-3.1151,-3.1151,-3.1109,-3.1109,-3.1108,-3.1107,-3.1083,-3.1084,-3.1084,0,0,0,0,0,0,0,0,0,0,0,0,0,-3.1184,-3.1184,-3.1174,-3.1174,-3.1174,-3.1151,-3.1151,-3.1151,-3.111,-3.1109,-3.1108,-3.1107,-3.1083,-3.1084,-3.1084,0,0,0,0,0,0,0,0,0,0,0,0,0,-3.1172,-3.1184,-3.1175,-3.1151,-3.1148,-3.1151,-3.1151,-3.1151,-3.111,-3.1109,-3.1107,-3.1106,-3.1083,-3.1084,-3.1084,-3.1108,0,0,-3.1084,-3.1084,0,0,0,0,0,0,0,0,-3.1173,-3.1172,-3.1154,-3.1152,-3.115,-3.1132,-3.1145,-3.1136,-3.111,-3.1124,-3.1107,-3.1106,-3.1101,-3.1099,-3.1097,-3.1107,-3.1106,-3.1084,-3.1084,-3.1084,-3.1084,0,0,0,0,0,0,0,-3.1174,-3.1173,-3.1165,-3.1154,-3.1151,-3.1141,-3.1138,-3.1144,-3.1119,-3.1123,-3.112,-3.1118,-3.1099,-3.1097,-3.1097,-3.1106,-3.1084,-3.1084,-3.1084,-3.1084,-3.1135,-3.1137,0,0,0,0,0,0,-3.1178,-3.1173,-3.1166,-3.1165,-3.1159,-3.1142,-3.1139,-3.1139,-3.1119,-3.1115,-3.1119,-3.1116,-3.1098,-3.1096,-3.1096,-3.1124,-3.1084,-3.1085,-3.1085,-3.1134,-3.1136,-3.1137,0,0,0,0,0,0,-3.1178,-3.1178,-3.1167,-3.1168,-3.1166,-3.1143,-3.1144,-3.1139,-3.1137,-3.1116,-3.1112,-3.1122,-3.1097,-3.1095,-3.1106,-3.1122,-3.1085,-3.1085,-3.1133,-3.1135,-3.1136,-3.118,0,0,0,0,0,0,-3.1179,-3.1178,-3.1187,-3.1169,-3.1166,-3.1177,-3.1145,-3.1139,-3.1138,-3.1134,-3.1117,-3.1114,-3.1096,-3.1106,-3.1106,-3.1122,-3.1085,-3.1131,-3.1133,-3.1136,-3.1177,-3.1183,-3.1189,0,0,0,0,0,-3.1179,-3.12,-3.1188,-3.1187,-3.1177,-3.1178,-3.1177,-3.1156,-3.1139,-3.1148,-3.1135,-3.1114,-3.112,-3.1107,-3.1107,-3.1123,-3.113,-3.1133,-3.1136,-3.1174,-3.1182,-3.1188,0,0,0,0,0,0,-3.1221,-3.1197,-3.1183,-3.1199,-3.1191,-3.1171,-3.1182,-3.1164,-3.1161,-3.1158,-3.1132,-3.1128,-3.1142,-3.1133,-3.1119,-3.1146,-3.1122,-3.1125,-3.1152,-3.1159,-3.1164,-3.1166,-3.1085,0,0,0,0,0,-3.1232,-3.1235,-3.1214,-3.123,-3.1227,-3.1205,-3.1205,-3.1189,-3.118,-3.1177,-3.1164,-3.1156,-3.1156,-3.1157,-3.1156,-3.1175,-3.1172,-3.1187,-3.1192,-3.1197,-3.12,-3.1211,-3.1218,-3.1146,-3.1146,-3.1146,0,0,-3.1255,-3.1242,-3.1246,-3.1238,-3.123,-3.1234,-3.1203,-3.1208,-3.1211,-3.1178,-3.1187,-3.1177,-3.1166,-3.1182,-3.1188,-3.1175,-3.1219,-3.1201,-3.1205,-3.1205,-3.1215,-3.1221,-3.1228,-3.1148,-3.1148,-3.1148,0,0,-3.1298,-3.1289,-3.1301,-3.1294,-3.1283,-3.1268,-3.1271,-3.1255,-3.1247,-3.1256,-3.1231,-3.1234,-3.1235,-3.1228,-3.1225,-3.1267,-3.1249,-3.1268,-3.1298,-3.1309,-3.1314,-3.1319,-3.1335,-3.1341,-3.1271,-3.1271,-3.1271,0,-3.1328,-3.1333,-3.131,-3.1317,-3.1315,-3.1285,-3.1298,-3.1292,-3.1281,-3.128,-3.1266,-3.1267,-3.1257,-3.1271,-3.1282,-3.128,-3.1283,-3.127,-3.1315,-3.132,-3.1324,-3.1339,-3.1345,-3.1273,-3.1273,-3.1273,-3.1272,0,-3.1371,-3.1375,-3.1386,-3.1377,-3.1375,-3.1385,-3.1364,-3.1366,-3.135,-3.1338,-3.1347,-3.1335,-3.1332,-3.1333,-3.1318,-3.1346,-3.1338,-3.132,-3.1295,-3.1334,-3.1348,-3.1353,-3.1277,-3.1276,-3.1275,-3.1275,0,0,-3.1441,-3.1418,-3.1423,-3.1418,-3.1403,-3.1406,-3.1415,-3.1411,-3.1414,-3.1407,-3.1414,-3.1416,-3.1399,-3.1396,-3.138,-3.1389,-3.1424,-3.137,-3.1369,-3.1381,-3.1455,-3.1469,-3.1476,-3.1412,-3.1413,-3.1413,-3.1456,0,-3.1482,-3.1496,-3.1475,-3.1494,-3.1498,-3.1469,-3.1477,-3.1469,-3.1458,-3.1459,-3.1446,-3.1448,-3.1426,-3.1424,-3.1432,-3.1419,-3.1439,-3.1415,-3.1419,-3.1419,-3.1423,-3.1483,-3.1498,-3.1538,-3.1461,-3.1462,-3.1462,0,-3.1532,-3.1528,-3.1547,-3.1532,-3.1532,-3.154,-3.1535,-3.1537,-3.1528,-3.1519,-3.1515,-3.1496,-3.1504,-3.148,-3.1491,-3.1475,-3.1475,-3.1469,-3.147,-3.1471,-3.1444,-3.1485,-3.1551,-3.1557,-3.147,-3.147,-3.1469,0,-3.1582,-3.1581,-3.1593,-3.159,-3.1572,-3.1578,-3.1571,-3.156,-3.1559,-3.1556,-3.1555,-3.1552,-3.1551,-3.1549,-3.153,-3.1514,-3.1544,-3.1518,-3.1537,-3.1538,-3.1545,-3.1545,-3.1613,-3.1545,-3.1544,-3.1544,-3.1544,0,-3.1631,-3.1644,-3.1615,-3.1622,-3.1636,-3.1613,-3.1627,-3.1617,-3.1608,-3.1613,-3.1588,-3.1594,-3.1568,-3.1571,-3.1556,-3.1568,-3.1567,-3.156,-3.1557,-3.1563,-3.1564,-3.1564,-3.1561,-3.1546,-3.1546,-3.1545,-3.1545,0,-3.1689,-3.167,-3.1681,-3.1664,-3.1659,-3.1671,-3.1656,-3.1662,-3.1649,-3.1655,-3.1656,-3.1635,-3.1637,-3.1618,-3.1616,-3.1606,-3.1625,-3.1616,-3.1629,-3.1626,-3.1647,-3.1646,-3.1717,-3.1726,-3.1652,-3.1652,-3.1653,0,-3.1722,-3.1731,-3.1715,-3.1716,-3.171,-3.1713,-3.1712,-3.169,-3.169,-3.1681,-3.1688,-3.1688,-3.1687,-3.1691,-3.1677,-3.1675,-3.1666,-3.1691,-3.1666,-3.1673,-3.1668,-3.1668,-3.1669,-3.1697,-3.1698,-3.1699,-3.1699,0,-3.1782,-3.1773,-3.1772,-3.177,-3.1769,-3.1766,-3.1761,-3.1764,-3.1739,-3.1741,-3.1743,-3.1742,-3.174,-3.1741,-3.1737,-3.1729,-3.1711,-3.1707,-3.1712,-3.1719,-3.1727,-3.1724,-3.1644,-3.1706,-3.1705,-3.1705,-3.1704,-3.1704,-3.1829,-3.1837,-3.1826,-3.1827,-3.1821,-3.1817,-3.1822,-3.181,-3.1811,-3.1808,-3.1794,-3.1799,-3.1789,-3.1782,-3.1777,-3.178,-3.1768,-3.1775,-3.1776,-3.1779,-3.1783,-3.1725,-3.1779,-3.1779,-3.1779,-3.1779,-3.1779,0,-3.1889,-3.1881,-3.1882,-3.1876,-3.1877,-3.1859,-3.1852,-3.1854,-3.1859,-3.1852,-3.1851,-3.1854,-3.1854,-3.1839,-3.1838,-3.1844,-3.1835,-3.1844,-3.1844,-3.1843,-3.1793,-3.179,-3.1851,-3.1851,-3.1851,-3.1851,-3.1851,-3.1851,-3.192,-3.1932,-3.1921,-3.193,-3.1922,-3.1926,-3.1924,-3.192,-3.1915,-3.1919,-3.1919,-3.1909,-3.1899,-3.1897,-3.1897,-3.1893,-3.1894,-3.1907,-3.1899,-3.1853,-3.1846,-3.184,-3.1836,-3.1907,-3.1907,-3.1949,-3.1949,-3.195]}]]